{"data":{"norad_id":56115,"epoch":"2026-09-20T01:09:03.233376Z","epoch_age_seconds":147638,"freshness":"FRESH","line1":"1 56115U 23046Y   26263.04795409 -.00000258  00000+0  14892-6 0  9995","line2":"2 56115  43.0038 140.7200 0001359 266.8546  93.2150 15.27574752191799","mean_motion":15.27574752,"eccentricity":0.0001359,"inclination_deg":43.0038,"raan_deg":140.72,"arg_perigee_deg":266.8546,"mean_anomaly_deg":93.215,"bstar":1.4892e-7,"rev_number":19179,"period_min":94.267072568112,"perigee_km":482.13237315856,"apogee_km":483.99724781065,"semimajor_km":6861.2018104846,"source":"CELESTRAK","updated_at":"2026-09-21T09:00:33.384643Z"}}